Regional Weather Roundup
Issued by NWS Burlington, VT

Home | Current Version | Previous Version | Text Only | Print | Product List | Glossary On
Versions: 1 2 3 4 5 6 7 8 9 10 11 12 13 14 15 16 17 18 19 20 21 22 23 24 25 26 27 28 29 30 31 32 33 34 35 36 37 38 39 40 41 42 43 44 45 46 47 48 49 50
000
ASUS41 KBTV 250510
RWRBTV
VERMONT REGIONAL WEATHER ROUNDUP
NATIONAL WEATHER SERVICE BURLINGTON VT
100 AM EDT MON SEP 25 2017

NOTE: "FAIR" INDICATES FEW OR NO CLOUDS BELOW 12,000 FEET WITH NO
SIGNIFICANT WEATHER AND/OR OBSTRUCTIONS TO VISIBILITY.

* THESE REPORTS ARE NOT UNDER NWS QUALITY CONTROL AND/OR DO NOT
  REPORT WEATHER SUCH AS PRECIPITATION AND FOG.

VTZ001>019-250600-
_____VERMONT_____


CITY           SKY/WX    TMP DP  RH WIND       PRES   REMARKS
BURLINGTON     PTCLDY    70  68  93 CALM      30.07S
MONTPELIER     FOG       64  64 100 CALM      30.15S VSB 3/4
MORRISVILLE    CLOUDY    62  62 100 CALM      30.12R FOG
ST. JOHNSBURY*   N/A     66  66 100 MISG      30.09R
LYNDONVILLE*   FAIR      67  66  97 CALM      30.13S FOG
MIDDLEBURY*    FAIR      67  66  99 CALM      30.09S FOG
RUTLAND*       CLEAR     66  64  93 SE8       30.11S
SPRINGFIELD    CLEAR     65  62  90 CALM      30.10R
HIGHGATE*      FAIR      67  67 100 CALM      30.05F FOG
NEWPORT*       FAIR      65  65 100 S7        30.11S FOG
BENNINGTON     CLEAR     63  61  93 S3        30.09S
SUTTON*          N/A     66 N/A N/A MISG        N/A

_____LAKE CHAMPLAIN_____


CITY           SKY/WX    TMP DP  RH WIND       PRES   REMARKS
BURTON ISLAND*   N/A     73  70  88 SW8         N/A
COLCHESTER RF*   N/A     72  72 100 S8          N/A
DIAMOND ISL*     N/A     70  70 100 E2          N/A

$$

NYZ007-026>031-035-052-083-087-250600-
_____NORTHERN NEW YORK_____


CITY           SKY/WX    TMP DP  RH WIND       PRES   REMARKS
PLATTSBURGH    CLEAR     66  65  96 SE3       30.06S FOG
SARANAC LAKE   PTCLDY    55  55 100 CALM      30.15S FOG
MASSENA        CLEAR     67  67 100 CALM      30.07F
OGDENSBURG*    FAIR      65  64  96 CALM      30.07S FOG
POTSDAM*       CLEAR    N/A N/A N/A SW3       30.09S
WATERTOWN      CLEAR     63  63 100 CALM      30.08S FOG
FT DRUM        CLEAR     69  65  86 S3        30.09S
ALBANY         CLEAR     69  66  90 CALM      30.06S
GLENS FALLS    CLEAR     65  65 100 NE3       30.07S FOG

$$
NHZ002-005-011-250600-
_____NEW HAMPSHIRE_____


CITY           SKY/WX    TMP DP  RH WIND       PRES   REMARKS
LEBANON        PTCLDY    64  64 100 CALM      30.09R FOG
KEENE          FOG       64  63  94 CALM      30.08S VSB 3/4
MT WASHINGTON  PTCLDY    57  55  94 N13         N/A
PLYMOUTH       FOG       61  60  96 CALM      30.08R VSB 3/4
WHITEFIELD     CLEAR     61  58  90 CALM      30.12S

$$

_____REGIONAL QUEBEC LOCATIONS_____


CITY           SKY/WX    TMP DP  RH WIND       PRES   REMARKS
MONTREAL       PTCLDY    73  70  88 S5        30.03S
QUEBEC CITY    PTCLDY    63  55  77 NE6       30.06S
SHERBROOKE     CLEAR     64  64 100 CALM      30.08R FOG

_____REGIONAL ONTARIO LOCATIONS_____


CITY           SKY/WX    TMP DP  RH WIND       PRES   REMARKS
OTTAWA         PTCLDY    68  66  94 S2        30.06S

______KEY______
VSB  - VISIBILITY IN MILES
WCI  - WIND CHILL INDEX
HX   - HEAT INDEX
$$
NNNN




USA.gov is the U.S. government's official web portal to all federal, state and local government web resources and services.